DW8024 Weather Reports


Display with metric or nautical units.
time (UTC)temp
F
wind
direction
speed
MPH
gust
MPH
rain 1hr
in
rain 24hr
in
rain mn
in
humidity
%
barometer
mb
20170627221955 57 87 4.0 10.0 0.00 0.05 0.05 89 1003.1
20170627221458 57 90 3.0 9.0 0.00 0.05 0.05 89 1003.1
20170627220955 57 90 4.0 12.0 0.00 0.05 0.05 89 1003.1
20170627220455 57 89 5.0 12.0 0.00 0.05 0.05 89 1003.2
20170627215958 57 90 5.0 12.0 0.00 0.05 0.05 90 1003.1
20170627215455 57 90 4.0 10.0 0.00 0.05 0.05 90 1003.2
20170627214954 57 90 5.0 10.0 0.00 0.05 0.05 90 1003.2
20170627214458 57 96 5.0 10.0 0.00 0.05 0.05 90 1003.3
20170627213955 57 98 4.0 8.0 0.00 0.05 0.05 90 1003.2
20170627213454 57 95 4.0 8.0 0.01 0.05 0.05 90 1003.3
20170627212958 57 100 4.0 9.0 0.01 0.05 0.05 90 1003.3
20170627212454 57 101 3.0 9.0 0.01 0.05 0.05 90 1003.3
20170627211955 57 97 4.0 9.0 0.02 0.05 0.05 90 1003.4
20170627211458 57 90 5.0 10.0 0.02 0.05 0.05 90 1003.5
20170627210955 57 84 4.0 10.0 0.02 0.05 0.05 90 1003.5
20170627210455 57 92 3.0 8.0 0.02 0.05 0.05 90 1003.6
20170627205958 58 96 3.0 8.0 0.02 0.05 0.05 90 1003.6
20170627205455 58 90 3.0 10.0 0.02 0.05 0.05 90 1003.6
20170627204954 58 81 4.0 10.0 0.02 0.05 0.05 90 1003.5
20170627204458 58 83 4.0 8.0 0.02 0.05 0.05 90 1003.5
20170627203954 58 85 4.0 9.0 0.02 0.05 0.05 89 1003.5
20170627203455 58 84 4.0 9.0 0.01 0.04 0.04 89 1003.5
20170627202957 58 88 3.0 9.0 0.01 0.04 0.04 89 1003.5
20170627202455 58 100 2.0 7.0 0.01 0.04 0.04 88 1003.5
20170627201955 58 107 3.0 7.0 0.00 0.03 0.03 88 1003.5
20170627201457 59 107 4.0 9.0 0.00 0.03 0.03 88 1003.6
20170627200955 59 107 4.0 9.0 0.00 0.03 0.03 88 1003.6
20170627200454 59 106 4.0 8.0 0.00 0.03 0.03 87 1003.6
20170627195958 59 107 3.0 8.0 0.00 0.03 0.03 87 1003.7
20170627195455 59 98 3.0 9.0 0.00 0.03 0.03 87 1003.7
20170627194955 59 96 4.0 9.0 0.00 0.03 0.03 86 1003.7
20170627194458 59 99 4.0 9.0 0.00 0.03 0.03 86 1003.7
20170627193954 59 92 4.0 11.0 0.00 0.03 0.03 86 1003.7
20170627193455 59 92 5.0 13.0 0.00 0.03 0.03 86 1003.7
20170627192958 59 92 5.0 13.0 0.00 0.03 0.03 86 1003.7
20170627192454 60 88 5.0 11.0 0.00 0.03 0.03 86 1003.7
20170627191955 60 82 4.0 9.0 0.00 0.03 0.03 86 1003.7
20170627191458 60 81 4.0 9.0 0.00 0.03 0.03 86 1003.8
20170627190955 60 82 5.0 12.0 0.00 0.03 0.03 86 1003.8
20170627190455 60 80 6.0 13.0 0.00 0.03 0.03 86 1003.8
20170627185958 60 78 7.0 13.0 0.00 0.03 0.03 86 1003.8
20170627185455 60 78 6.0 13.0 0.00 0.03 0.03 86 1003.9
20170627184954 60 80 5.0 11.0 0.00 0.03 0.03 86 1004.0
20170627184458 60 80 5.0 11.0 0.00 0.03 0.03 86 1004.0
20170627183954 60 79 4.0 11.0 0.00 0.03 0.03 86 1004.0
20170627183455 60 81 5.0 11.0 0.00 0.03 0.03 86 1004.0
20170627182958 60 86 5.0 11.0 0.00 0.03 0.03 86 1004.1
20170627182454 61 87 5.0 9.0 0.00 0.03 0.03 85 1004.1
20170627181955 61 82 5.0 9.0 0.00 0.03 0.03 85 1004.1
20170627181457 61 86 5.0 9.0 0.00 0.03 0.03 84 1004.1
20170627180955 61 95 5.0 11.0 0.00 0.03 0.03 84 1004.1
20170627180454 61 99 5.0 11.0 0.00 0.03 0.03 83 1004.1
20170627175958 61 93 4.0 9.0 0.00 0.03 0.03 83 1004.2
20170627175454 61 90 5.0 9.0 0.00 0.03 0.03 83 1004.2
20170627174955 61 102 5.0 9.0 0.00 0.03 0.03 83 1004.2
20170627174457 61 110 4.0 9.0 0.00 0.03 0.03 83 1004.3
20170627173955 61 100 5.0 11.0 0.00 0.03 0.03 83 1004.3
20170627173454 61 98 5.0 11.0 0.00 0.03 0.03 82 1004.3
20170627172957 62 103 5.0 10.0 0.00 0.03 0.03 82 1004.4
20170627172455 62 103 5.0 11.0 0.00 0.03 0.03 82 1004.5
20170627171954 62 108 5.0 11.0 0.00 0.03 0.03 81 1004.5
20170627171458 62 111 4.0 9.0 0.00 0.03 0.03 81 1004.4
20170627170954 62 115 4.0 10.0 0.00 0.03 0.03 80 1004.5
20170627170454 62 118 5.0 12.0 0.00 0.03 0.03 80 1004.4
20170627165957 62 113 5.0 12.0 0.00 0.03 0.03 80 1004.5
20170627165454 62 110 3.0 10.0 0.00 0.03 0.03 80 1004.5
20170627164954 62 102 4.0 10.0 0.00 0.03 0.03 80 1004.6
20170627164458 62 92 3.0 10.0 0.00 0.03 0.03 79 1004.5
20170627163954 62 89 3.0 8.0 0.00 0.03 0.03 79 1004.6
20170627163455 62 90 4.0 9.0 0.00 0.03 0.03 79 1004.7
20170627162957 62 94 3.0 9.0 0.00 0.03 0.03 79 1004.7
20170627162455 62 106 4.0 10.0 0.00 0.03 0.03 79 1004.8
20170627161954 62 117 5.0 10.0 0.00 0.03 0.03 79 1004.7
20170627161457 62 109 6.0 11.0 0.00 0.03 0.03 78 1004.8
20170627160954 63 102 6.0 11.0 0.00 0.03 0.03 77 1004.9
20170627160454 63 110 5.0 11.0 0.00 0.03 0.03 76 1005.0
20170627155957 63 130 6.0 15.0 0.00 0.03 0.03 77 1005.0
20170627155454 63 134 6.0 15.0 0.00 0.03 0.03 76 1005.0
20170627154954 64 122 6.0 13.0 0.00 0.03 0.03 76 1005.0
20170627154457 64 108 7.0 13.0 0.00 0.03 0.03 75 1005.1
20170627153955 64 108 6.0 13.0 0.00 0.03 0.03 74 1005.1
20170627153454 64 115 6.0 12.0 0.00 0.03 0.03 75 1005.1
20170627152957 64 121 6.0 15.0 0.00 0.03 0.03 74 1005.0
20170627152454 64 117 7.0 15.0 0.00 0.03 0.03 74 1005.1
20170627151954 64 111 6.0 12.0 0.00 0.03 0.03 73 1005.2
20170627151457 65 123 6.0 13.0 0.00 0.03 0.03 72 1005.1
20170627150954 65 122 7.0 13.0 0.00 0.03 0.03 73 1005.1
20170627150454 65 115 7.0 13.0 0.00 0.03 0.03 72 1005.2
20170627145957 65 113 6.0 12.0 0.00 0.03 0.03 73 1005.2
20170627145454 65 120 6.0 12.0 0.00 0.03 0.03 73 1005.2
20170627144954 65 122 6.0 14.0 0.00 0.03 0.03 73 1005.4
20170627144456 65 113 7.0 14.0 0.00 0.03 0.03 72 1005.4
20170627143954 65 107 8.0 17.0 0.00 0.03 0.03 73 1005.4
20170627143454 65 104 7.0 17.0 0.00 0.03 0.03 72 1005.4
20170627142957 65 101 8.0 16.0 0.00 0.03 0.03 73 1005.6
20170627142454 64 98 8.0 16.0 0.00 0.03 0.03 72 1005.6
20170627141954 65 106 7.0 15.0 0.00 0.03 0.03 73 1005.7
20170627141457 64 114 7.0 15.0 0.00 0.03 0.03 75 1005.8
20170627140953 64 114 7.0 15.0 0.00 0.03 0.03 74 1005.8
20170627140454 64 105 7.0 14.0 0.00 0.03 0.03 75 1005.9
20170627135958 63 100 8.0 15.0 0.00 0.03 0.03 74 1006.0
20170627135454 63 113 8.0 15.0 0.00 0.03 0.03 74 1006.0
20170627134953 63 115 7.0 14.0 0.00 0.03 0.03 75 1006.0
20170627134457 63 97 7.0 12.0 0.00 0.03 0.03 76 1006.1
20170627133953 63 96 6.0 12.0 0.00 0.03 0.03 77 1006.1
20170627133454 62 101 7.0 14.0 0.00 0.03 0.03 77 1006.0
20170627132957 62 103 7.0 14.0 0.00 0.03 0.03 77 1006.0
20170627132454 62 97 7.0 15.0 0.00 0.03 0.03 78 1006.0
20170627131954 62 88 8.0 15.0 0.00 0.03 0.03 76 1006.0
20170627131457 62 94 8.0 14.0 0.00 0.03 0.03 76 1006.1
20170627130954 62 106 6.0 13.0 0.00 0.03 0.03 77 1006.1
20170627130453 62 101 6.0 12.0 0.00 0.03 0.03 77 1006.3
20170627125957 63 105 6.0 13.0 0.00 0.03 0.03 77 1006.3
20170627125454 63 120 8.0 16.0 0.00 0.03 0.03 76 1006.4
20170627124954 63 124 7.0 16.0 0.00 0.03 0.03 75 1006.4
20170627124456 64 122 5.0 12.0 0.00 0.03 0.03 77 1006.4
20170627123954 63 125 6.0 12.0 0.00 0.03 0.03 76 1006.4
20170627123454 63 127 7.0 14.0 0.00 0.03 0.03 77 1006.4
20170627122957 63 126 7.0 14.0 0.00 0.03 0.03 77 1006.5
20170627122453 63 124 6.0 12.0 0.00 0.03 0.03 77 1006.5
20170627121954 63 119 6.0 12.0 0.00 0.03 0.03 77 1006.5
20170627121457 63 111 6.0 11.0 0.00 0.03 0.03 78 1006.4
20170627120953 63 111 6.0 13.0 0.00 0.03 0.03 79 1006.5
20170627120454 63 114 7.0 13.0 0.00 0.03 0.03 79 1006.5
20170627115956 62 114 6.0 13.0 0.01 0.03 0.03 79 1006.6
20170627115454 62 110 6.0 12.0 0.01 0.03 0.03 81 1006.7
20170627114953 62 105 6.0 12.0 0.01 0.03 0.03 82 1006.6
20170627114457 62 112 4.0 11.0 0.01 0.03 0.03 82 1006.7
20170627113953 61 122 4.0 12.0 0.01 0.03 0.03 83 1006.6
20170627113454 61 115 6.0 12.0 0.01 0.03 0.03 83 1006.7
20170627112956 61 116 6.0 12.0 0.01 0.03 0.03 84 1006.8
20170627112454 61 115 5.0 12.0 0.01 0.03 0.03 84 1006.8
20170627111953 60 107 4.0 11.0 0.01 0.03 0.03 85 1006.7
20170627111457 60 101 5.0 13.0 0.01 0.03 0.03 85 1006.8
20170627110953 60 107 5.0 13.0 0.01 0.03 0.03 83 1006.9
20170627110453 60 109 5.0 9.0 0.01 0.03 0.03 84 1007.0
20170627105957 60 105 5.0 10.0 0.00 0.02 0.02 83 1007.0
20170627105454 60 116 5.0 10.0 0.00 0.02 0.02 82 1006.9
20170627104953 60 121 6.0 14.0 0.00 0.02 0.02 81 1007.0
20170627104456 60 107 6.0 14.0 0.00 0.02 0.02 82 1007.0
20170627103954 60 105 6.0 17.0 0.00 0.02 0.02 82 1007.1
20170627103453 60 115 6.0 17.0 0.00 0.02 0.02 82 1007.1
20170627102957 60 114 5.0 12.0 0.01 0.02 0.02 83 1007.2
20170627102453 59 119 5.0 13.0 0.01 0.02 0.02 83 1007.2
20170627101954 59 119 6.0 13.0 0.01 0.02 0.02 85 1007.2
20170627101456 58 108 5.0 13.0 0.01 0.02 0.02 85 1007.3
20170627100954 58 104 5.0 12.0 0.01 0.02 0.02 86 1007.3
20170627100453 58 107 5.0 11.0 0.01 0.02 0.02 86 1007.3
20170627095957 57 110 5.0 11.0 0.01 0.02 0.02 86 1007.3
20170627095453 57 111 5.0 11.0 0.01 0.02 0.02 86 1007.5
20170627094954 57 106 5.0 10.0 0.01 0.02 0.02 86 1007.5
20170627094456 56 107 5.0 12.0 0.01 0.02 0.02 85 1007.4
20170627093954 56 109 5.0 12.0 0.01 0.02 0.02 84 1007.3
20170627093453 56 118 5.0 10.0 0.01 0.02 0.02 83 1007.4
20170627092956 56 113 6.0 14.0 0.00 0.01 0.01 82 1007.6
20170627092453 56 109 6.0 14.0 0.00 0.01 0.01 81 1007.2
20170627091953 57 112 6.0 12.0 0.01 0.01 0.01 81 1007.6
20170627091457 56 106 6.0 12.0 0.01 0.01 0.01 81 1007.8
20170627090956 56 103 6.0 14.0 0.01 0.01 0.01 81 1007.8
20170627090453 56 103 7.0 14.0 0.01 0.01 0.01 81 1007.8
20170627085956 57 105 7.0 14.0 0.01 0.01 0.01 81 1007.8
20170627085454 57 104 7.0 16.0 0.01 0.01 0.01 81 1007.8
20170627084953 56 105 6.0 16.0 0.01 0.01 0.01 81 1007.7
20170627084457 56 107 5.0 10.0 0.01 0.01 0.01 82 1007.9
20170627083953 56 101 6.0 13.0 0.01 0.01 0.01 82 1008.0
20170627083453 56 97 6.0 13.0 0.01 0.01 0.01 82 1008.2
20170627082956 56 100 5.0 10.0 0.01 0.01 0.01 81 1008.3
20170627082453 56 101 5.0 9.0 0.01 0.01 0.01 82 1008.4
20170627081953 56 94 4.0 9.0 0.00 0.00 0.00 80 1008.5
20170627081456 56 92 4.0 9.0 0.00 0.00 0.00 81 1008.6
20170627080953 56 92 4.0 7.0 0.00 0.00 0.00 81 1008.6
20170627080453 56 86 4.0 7.0 0.00 0.00 0.00 81 1008.7
20170627075957 56 84 4.0 9.0 0.00 0.00 0.00 81 1008.7
20170627075453 56 81 4.0 9.0 0.00 0.00 0.00 82 1008.8
20170627074953 56 74 4.0 9.0 0.00 0.00 0.00 82 1008.8
20170627074456 56 64 4.0 7.0 0.00 0.00 0.00 83 1008.8
20170627073953 56 53 4.0 8.0 0.00 0.00 0.00 83 1008.9
20170627073453 56 42 4.0 8.0 0.00 0.00 0.00 83 1008.9
20170627072957 56 33 3.0 7.0 0.00 0.00 0.00 83 1009.0
20170627072453 56 13 2.0 6.0 0.00 0.00 0.00 82 1009.1
20170627071953 56 350 3.0 6.0 0.00 0.00 0.00 81 1009.1
20170627071456 56 358 3.0 8.0 0.00 0.00 0.00 80 1009.2
20170627070953 56 19 2.0 8.0 0.00 0.00 0.00 80 1009.1
20170627070453 57 51 1.0 4.0 0.00 0.00 0.00 78 1009.1
20170627065956 57 104 1.0 3.0 0.00 0.00 0.00 76 1009.2
20170627065453 57 136 3.0 6.0 0.00 0.00 0.00 76 1009.1
20170627064953 57 131 4.0 12.0 0.00 0.00 0.00 75 1009.1
20170627064457 57 125 3.0 12.0 0.00 0.00 0.00 74 1009.1
20170627063953 57 130 4.0 8.0 0.00 0.00 0.00 74 1008.9
20170627063453 58 123 5.0 10.0 0.00 0.00 0.00 72 1008.8
20170627062956 58 117 5.0 10.0 0.00 0.00 0.00 71 1008.8
20170627062452 58 122 5.0 10.0 0.00 0.00 0.00 70 1008.7
20170627061953 58 125 5.0 11.0 0.00 0.00 0.00 70 1008.7
20170627061456 58 127 5.0 11.0 0.00 0.00 0.00 70 1008.7
20170627060953 58 130 4.0 10.0 0.00 0.00 0.00 69 1008.7
20170627060453 58 128 4.0 10.0 0.00 0.00 0.00 69 1008.6
20170627055956 58 126 5.0 11.0 0.00 0.00 0.00 69 1008.6
20170627055453 58 120 5.0 11.0 0.00 0.00 0.00 69 1008.6
20170627054953 58 125 6.0 11.0 0.00 0.00 0.00 68 1008.5
20170627054455 58 127 6.0 12.0 0.00 0.00 0.00 68 1008.6
20170627053953 58 126 5.0 12.0 0.00 0.00 0.00 68 1008.6
20170627053453 58 126 4.0 11.0 0.00 0.00 0.00 68 1008.6
20170627052956 58 120 5.0 14.0 0.00 0.00 0.00 67 1008.7
20170627052453 58 115 5.0 14.0 0.00 0.00 0.00 67 1008.6
20170627051952 58 99 3.0 8.0 0.00 0.00 0.00 68 1008.6
20170627051456 58 108 4.0 9.0 0.00 0.00 0.00 68 1008.6
20170627050952 58 114 4.0 10.0 0.00 0.00 0.00 69 1008.6
20170627050453 58 117 4.0 10.0 0.00 0.00 0.00 69 1008.7
20170627045956 58 123 4.0 8.0 0.00 0.00 0.00 69 1008.7
20170627045453 58 122 4.0 9.0 0.00 0.00 0.00 69 1008.6
20170627044953 58 121 4.0 9.0 0.00 0.00 0.00 69 1008.6
20170627044455 58 121 5.0 11.0 0.00 0.00 0.00 70 1008.6
20170627043953 58 118 4.0 11.0 0.00 0.00 0.00 70 1008.6
20170627043452 58 125 4.0 9.0 0.00 0.00 0.00 70 1008.6
20170627042956 58 135 5.0 10.0 0.00 0.00 0.00 72 1008.7
20170627042453 58 132 4.0 10.0 0.00 0.00 0.00 72 1008.7
20170627041953 57 126 5.0 9.0 0.00 0.00 0.00 73 1008.6
20170627041456 57 131 6.0 10.0 0.00 0.00 0.00 74 1008.6
20170627040953 57 130 6.0 10.0 0.00 0.00 0.00 74 1008.6
20170627040453 57 128 6.0 11.0 0.00 0.00 0.00 75 1008.6
20170627035956 57 134 6.0 11.0 0.00 0.00 0.00 76 1008.7
20170627035452 57 132 6.0 12.0 0.00 0.00 0.00 76 1008.8
20170627034952 57 125 6.0 14.0 0.00 0.00 0.00 76 1008.9
20170627034458 57 128 6.0 14.0 0.00 0.00 0.00 77 1008.8
20170627033952 57 130 5.0 12.0 0.00 0.00 0.00 77 1008.8
20170627033453 57 127 5.0 12.0 0.00 0.00 0.00 77 1008.9
20170627032955 57 127 6.0 12.0 0.00 0.00 0.00 77 1008.9
20170627032453 57 126 6.0 12.0 0.00 0.00 0.00 77 1008.9
20170627031952 57 123 6.0 12.0 0.00 0.00 0.00 77 1008.9
20170627031456 58 121 6.0 16.0 0.00 0.00 0.00 78 1009.0
20170627030952 58 120 6.0 16.0 0.00 0.00 0.00 77 1009.0
20170627030453 58 115 6.0 14.0 0.00 0.00 0.00 78 1009.0
20170627025955 58 112 6.0 14.0 0.00 0.00 0.00 78 1009.0
20170627025453 57 124 6.0 11.0 0.00 0.00 0.00 79 1009.1
20170627024952 58 131 6.0 12.0 0.00 0.00 0.00 79 1009.2
20170627024456 57 130 7.0 13.0 0.00 0.00 0.00 79 1009.3
20170627023952 57 128 7.0 13.0 0.00 0.00 0.00 79 1009.2
20170627023452 58 126 6.0 12.0 0.00 0.00 0.00 80 1009.2
20170627022955 58 120 5.0 9.0 0.00 0.00 0.00 80 1009.3
20170627022453 58 117 4.0 9.0 0.00 0.00 0.00 80 1009.4
20170627021952 58 113 3.0 8.0 0.00 0.00 0.00 80 1009.4
20170627021456 58 105 4.0 10.0 0.00 0.00 0.00 79 1009.4
20170627020952 58 107 5.0 10.0 0.00 0.00 0.00 78 1009.5
20170627020453 58 118 4.0 8.0 0.00 0.00 0.00 78 1009.5
20170627015955 58 120 4.0 8.0 0.00 0.00 0.00 78 1009.4
20170627015453 58 118 5.0 13.0 0.00 0.00 0.00 78 1009.6
20170627014952 58 116 5.0 13.0 0.00 0.00 0.00 77 1009.7
20170627014456 58 115 5.0 11.0 0.00 0.00 0.00 77 1009.7
20170627013952 58 117 5.0 11.0 0.00 0.00 0.00 78 1009.8
20170627013452 58 120 5.0 9.0 0.00 0.00 0.00 78 1010.0
20170627012955 58 119 6.0 12.0 0.00 0.00 0.00 77 1010.1
20170627012452 58 123 6.0 12.0 0.00 0.00 0.00 77 1010.1
20170627011952 58 122 5.0 11.0 0.00 0.00 0.00 76 1010.3
20170627011455 58 125 5.0 10.0 0.00 0.00 0.00 75 1010.3
20170627010952 58 123 6.0 11.0 0.00 0.00 0.00 75 1010.3
20170627010452 58 122 6.0 11.0 0.00 0.00 0.00 74 1010.3
20170627005956 58 130 6.0 11.0 0.00 0.00 0.00 73 1010.4
20170627005452 59 129 5.0 10.0 0.00 0.00 0.00 73 1010.5
20170627004953 59 125 6.0 14.0 0.00 0.00 0.00 72 1010.6
20170627004455 59 120 6.0 14.0 0.00 0.00 0.00 72 1010.6
20170627003952 59 121 5.0 11.0 0.00 0.00 0.00 71 1010.6
20170627003452 59 124 6.0 11.0 0.00 0.00 0.00 71 1010.7
20170627002955 59 121 5.0 11.0 0.00 0.00 0.00 71 1010.8
20170627002452 59 116 5.0 11.0 0.00 0.00 0.00 71 1010.8
20170627001952 59 123 6.0 12.0 0.00 0.00 0.00 70 1010.9
20170627001455 59 131 6.0 12.0 0.00 0.00 0.00 69 1011.1
20170627000952 59 134 6.0 12.0 0.00 0.00 0.00 69 1011.2
20170627000452 59 142 7.0 13.0 0.00 0.00 0.00 68 1011.2
20170626235956 60 143 7.0 13.0 0.00 0.00 0.00 68 1011.2
20170626235452 60 137 7.0 13.0 0.00 0.00 0.00 68 1011.1
20170626234952 60 134 7.0 13.0 0.00 0.00 0.00 68 1011.1
20170626234455 60 130 6.0 12.0 0.00 0.00 0.00 68 1011.1
20170626233952 60 125 7.0 14.0 0.00 0.00 0.00 68 1011.0
20170626233452 60 123 8.0 18.0 0.00 0.00 0.00 69 1011.1
20170626232955 60 122 7.0 18.0 0.00 0.00 0.00 69 1011.0
20170626232452 60 119 6.0 13.0 0.00 0.00 0.00 70 1011.0
20170626231952 60 123 6.0 16.0 0.00 0.00 0.00 70 1011.0
20170626231455 60 126 5.0 16.0 0.00 0.00 0.00 70 1011.1
20170626230952 61 124 6.0 13.0 0.00 0.00 0.00 70 1011.1
20170626230452 61 122 6.0 14.0 0.00 0.00 0.00 70 1011.1
20170626230002 61 121 6.0 14.0 0.00 0.00 0.00 70 1011.2
20170626225452 61 112 5.0 10.0 0.00 0.00 0.00 69 1011.3
20170626224952 61 106 5.0 10.0 0.00 0.00 0.00 69 1011.3
20170626224455 61 112 5.0 10.0 0.00 0.00 0.00 69 1011.3
20170626223952 61 114 5.0 15.0 0.00 0.00 0.00 68 1011.4
20170626223452 62 104 5.0 15.0 0.00 0.00 0.00 67 1011.4
20170626222955 62 104 5.0 11.0 0.00 0.00 0.00 67 1011.4
20170626222452 62 108 3.0 11.0 0.00 0.00 0.00 66 1011.5